Time,TemperatureF,DewpointF,PressureIn,WindDirection,WindDirectionDegrees,WindSpeedMPH,WindSpeedGustMPH,Humidity,HourlyPrecipIn,Conditions,Clouds,dailyrainin,SoftwareType,DateUTC
2013-06-17 00:02:00,75.0,65.0,-100.00,ENE,59,6.0,14.0,70,0.00,,,0.00,,2013-06-17 10:02:00,
2013-06-17 00:12:00,75.0,65.0,-100.00,ENE,59,6.0,14.0,70,0.00,,,0.00,,2013-06-17 10:12:00,
2013-06-17 00:22:00,75.0,65.0,-100.00,ENE,59,6.0,14.0,70,0.00,,,0.00,,2013-06-17 10:22:00,
2013-06-17 00:33:00,75.0,65.0,-100.00,ENE,59,6.0,14.0,70,0.00,,,0.00,,2013-06-17 10:33:00,
2013-06-17 00:41:00,74.0,64.0,-100.00,ENE,66,6.0,15.0,71,0.00,,,0.00,,2013-06-17 10:41:00,
2013-06-17 01:02:00,74.0,64.0,-100.00,ENE,66,6.0,15.0,71,0.00,,,0.00,,2013-06-17 11:02:00,
2013-06-17 01:11:00,74.0,64.0,-100.00,ENE,66,6.0,15.0,71,0.00,,,0.00,,2013-06-17 11:11:00,
2013-06-17 01:23:00,74.0,64.0,-100.00,ENE,66,6.0,15.0,71,0.00,,,0.00,,2013-06-17 11:23:00,
2013-06-17 01:33:00,74.0,64.0,-100.00,ENE,66,6.0,15.0,71,0.00,,,0.00,,2013-06-17 11:33:00,
2013-06-17 01:41:00,74.0,64.0,-100.00,NE,36,4.0,13.0,71,0.00,,,0.00,,2013-06-17 11:41:00,
2013-06-17 02:02:00,74.0,64.0,-100.00,NE,36,4.0,13.0,71,0.00,,,0.00,,2013-06-17 12:02:00,
2013-06-17 02:11:00,74.0,64.0,-100.00,NE,36,4.0,13.0,71,0.00,,,0.00,,2013-06-17 12:11:00,
2013-06-17 02:22:00,74.0,64.0,-100.00,NE,36,4.0,13.0,71,0.00,,,0.00,,2013-06-17 12:22:00,
2013-06-17 02:33:00,74.0,64.0,-100.00,NE,36,4.0,13.0,71,0.00,,,0.00,,2013-06-17 12:33:00,
2013-06-17 02:41:00,75.0,65.0,-100.00,ENE,73,6.0,15.0,70,0.00,,,0.00,,2013-06-17 12:41:00,
2013-06-17 03:11:00,75.0,65.0,-100.00,ENE,73,6.0,15.0,70,0.00,,,0.00,,2013-06-17 13:11:00,
2013-06-17 03:22:00,75.0,65.0,-100.00,ENE,73,6.0,15.0,70,0.00,,,0.00,,2013-06-17 13:22:00,
2013-06-17 03:32:00,75.0,65.0,-100.00,ENE,73,6.0,15.0,70,0.00,,,0.00,,2013-06-17 13:32:00,
2013-06-17 03:41:00,74.0,63.0,-100.00,NNE,28,3.0,13.0,69,0.00,,,0.00,,2013-06-17 13:41:00,
2013-06-17 04:02:00,74.0,63.0,-100.00,NNE,28,3.0,13.0,69,0.00,,,0.00,,2013-06-17 14:02:00,
2013-06-17 04:11:00,74.0,63.0,-100.00,NNE,28,3.0,13.0,69,0.00,,,0.00,,2013-06-17 14:11:00,
2013-06-17 04:22:00,74.0,63.0,-100.00,NNE,28,3.0,13.0,69,0.00,,,0.00,,2013-06-17 14:22:00,
2013-06-17 04:34:00,74.0,63.0,-100.00,NNE,28,3.0,13.0,69,0.00,,,0.00,,2013-06-17 14:34:00,
2013-06-17 04:41:00,74.0,64.0,-100.00,ENE,72,3.0,11.0,72,0.00,,,0.00,,2013-06-17 14:41:00,
2013-06-17 05:01:00,74.0,64.0,-100.00,ENE,72,3.0,11.0,72,0.00,,,0.00,,2013-06-17 15:01:00,
2013-06-17 05:12:00,74.0,64.0,-100.00,ENE,72,3.0,11.0,72,0.00,,,0.00,,2013-06-17 15:12:00,
2013-06-17 05:22:00,74.0,64.0,-100.00,ENE,72,3.0,11.0,72,0.00,,,0.00,,2013-06-17 15:22:00,
2013-06-17 05:33:00,74.0,64.0,-100.00,ENE,72,3.0,11.0,72,0.00,,,0.00,,2013-06-17 15:33:00,
2013-06-17 05:41:00,72.0,64.0,-100.00,WNW,299,2.0,11.0,75,0.00,,,0.00,,2013-06-17 15:41:00,
2013-06-17 06:02:00,72.0,64.0,-100.00,WNW,299,2.0,11.0,75,0.00,,,0.00,,2013-06-17 16:02:00,
2013-06-17 06:11:00,72.0,64.0,-100.00,WNW,299,2.0,11.0,75,0.00,,,0.00,,2013-06-17 16:11:00,
2013-06-17 06:22:00,72.0,64.0,-100.00,WNW,299,2.0,11.0,75,0.00,,,0.00,,2013-06-17 16:22:00,
2013-06-17 06:33:00,72.0,64.0,-100.00,WNW,299,2.0,11.0,75,0.00,,,0.00,,2013-06-17 16:33:00,
2013-06-17 06:41:00,73.0,65.0,-100.00,NNE,15,4.0,7.0,77,0.00,,,0.00,,2013-06-17 16:41:00,
2013-06-17 07:02:00,73.0,65.0,-100.00,NNE,15,4.0,7.0,77,0.00,,,0.00,,2013-06-17 17:02:00,
2013-06-17 07:12:00,73.0,65.0,-100.00,NNE,15,4.0,7.0,77,0.00,,,0.00,,2013-06-17 17:12:00,
2013-06-17 07:22:00,73.0,65.0,-100.00,NNE,15,4.0,7.0,77,0.00,,,0.00,,2013-06-17 17:22:00,
2013-06-17 07:33:00,73.0,65.0,-100.00,NNE,15,4.0,7.0,77,0.00,,,0.00,,2013-06-17 17:33:00,
2013-06-17 07:41:00,73.0,64.0,-100.00,ESE,114,3.0,13.0,73,0.00,,,0.00,,2013-06-17 17:41:00,
2013-06-17 08:02:00,73.0,64.0,-100.00,ESE,114,3.0,13.0,73,0.00,,,0.00,,2013-06-17 18:02:00,
2013-06-17 08:12:00,73.0,64.0,-100.00,ESE,114,3.0,13.0,73,0.00,,,0.00,,2013-06-17 18:12:00,
2013-06-17 08:23:00,73.0,64.0,-100.00,ESE,114,3.0,13.0,73,0.00,,,0.00,,2013-06-17 18:23:00,
2013-06-17 08:33:00,73.0,64.0,-100.00,ESE,114,3.0,13.0,73,0.00,,,0.00,,2013-06-17 18:33:00,
2013-06-17 08:41:00,75.0,72.0,-100.00,NNW,332,3.0,5.0,91,0.06,,,0.06,,2013-06-17 18:41:00,
2013-06-17 09:02:00,75.0,72.0,-100.00,NNW,332,3.0,5.0,91,0.06,,,0.06,,2013-06-17 19:02:00,
2013-06-17 09:11:00,75.0,72.0,-100.00,NNW,332,3.0,5.0,91,0.06,,,0.06,,2013-06-17 19:11:00,
2013-06-17 09:22:00,75.0,72.0,-100.00,NNW,332,3.0,5.0,91,0.06,,,0.06,,2013-06-17 19:22:00,
2013-06-17 09:33:00,75.0,72.0,-100.00,NNW,332,3.0,5.0,91,0.06,,,0.06,,2013-06-17 19:33:00,
2013-06-17 09:41:00,81.0,70.0,-100.00,NE,54,12.0,20.0,69,0.00,,,0.06,,2013-06-17 19:41:00,
2013-06-17 10:02:00,81.0,70.0,-100.00,NE,54,12.0,20.0,69,0.00,,,0.06,,2013-06-17 20:02:00,
2013-06-17 10:11:00,81.0,70.0,-100.00,NE,54,12.0,20.0,69,0.00,,,0.06,,2013-06-17 20:11:00,
2013-06-17 10:22:00,81.0,70.0,-100.00,NE,54,12.0,20.0,69,0.00,,,0.06,,2013-06-17 20:22:00,
2013-06-17 10:34:00,81.0,70.0,-100.00,NE,54,12.0,20.0,69,0.00,,,0.06,,2013-06-17 20:34:00,
2013-06-17 12:41:00,84.0,67.0,-100.00,NNE,33,11.0,19.0,57,0.00,,,0.06,,2013-06-17 22:41:00,
2013-06-17 13:02:00,84.0,67.0,-100.00,NNE,33,11.0,19.0,57,0.00,,,0.06,,2013-06-17 23:02:00,
2013-06-17 13:11:00,84.0,67.0,-100.00,NNE,33,11.0,19.0,57,0.00,,,0.06,,2013-06-17 23:11:00,
2013-06-17 13:22:00,84.0,67.0,-100.00,NNE,33,11.0,19.0,57,0.00,,,0.06,,2013-06-17 23:22:00,
2013-06-17 13:32:00,84.0,67.0,-100.00,NNE,33,11.0,19.0,57,0.00,,,0.06,,2013-06-17 23:32:00,
2013-06-17 13:41:00,85.0,64.0,-100.00,NE,40,12.0,20.0,50,0.00,,,0.06,,2013-06-17 23:41:00,
2013-06-17 14:01:00,85.0,64.0,-100.00,NE,40,12.0,20.0,50,0.00,,,0.06,,2013-06-18 00:01:00,
2013-06-17 14:12:00,85.0,64.0,-100.00,NE,40,12.0,20.0,50,0.00,,,0.06,,2013-06-18 00:12:00,
2013-06-17 14:22:00,85.0,64.0,-100.00,NE,40,12.0,20.0,50,0.00,,,0.06,,2013-06-18 00:22:00,
2013-06-17 14:32:00,85.0,64.0,-100.00,NE,40,12.0,20.0,50,0.00,,,0.06,,2013-06-18 00:32:00,
2013-06-17 14:41:00,85.0,68.0,-100.00,NE,47,9.0,20.0,57,0.00,,,0.06,,2013-06-18 00:41:00,
2013-06-17 15:11:00,85.0,68.0,-100.00,NE,47,9.0,20.0,57,0.00,,,0.06,,2013-06-18 01:11:00,
2013-06-17 15:23:00,85.0,68.0,-100.00,NE,47,9.0,20.0,57,0.00,,,0.06,,2013-06-18 01:23:00,
2013-06-17 15:33:00,85.0,68.0,-100.00,NE,47,9.0,20.0,57,0.00,,,0.06,,2013-06-18 01:33:00,
2013-06-17 15:41:00,81.0,63.0,-100.00,NE,44,9.0,17.0,54,0.00,,,0.06,,2013-06-18 01:41:00,
2013-06-17 16:02:00,81.0,63.0,-100.00,NE,44,9.0,17.0,54,0.00,,,0.06,,2013-06-18 02:02:00,
2013-06-17 16:11:00,81.0,63.0,-100.00,NE,44,9.0,17.0,54,0.00,,,0.06,,2013-06-18 02:11:00,
2013-06-17 16:22:00,81.0,63.0,-100.00,NE,44,9.0,17.0,54,0.00,,,0.06,,2013-06-18 02:22:00,
2013-06-17 16:34:00,81.0,63.0,-100.00,NE,44,9.0,17.0,54,0.00,,,0.06,,2013-06-18 02:34:00,
2013-06-17 16:41:00,80.0,65.0,-100.00,NE,50,9.0,14.0,61,0.00,,,0.06,,2013-06-18 02:41:00,
2013-06-17 17:02:00,80.0,65.0,-100.00,NE,50,9.0,14.0,61,0.00,,,0.06,,2013-06-18 03:02:00,
2013-06-17 17:12:00,80.0,65.0,-100.00,NE,50,9.0,14.0,61,0.00,,,0.06,,2013-06-18 03:12:00,
2013-06-17 17:23:00,80.0,65.0,-100.00,NE,50,9.0,14.0,61,0.00,,,0.06,,2013-06-18 03:23:00,
2013-06-17 17:33:00,80.0,65.0,-100.00,NE,50,9.0,14.0,61,0.00,,,0.06,,2013-06-18 03:33:00,
2013-06-17 17:41:00,80.0,67.0,-100.00,NE,47,10.0,16.0,64,0.00,,,0.06,,2013-06-18 03:41:00,
2013-06-17 18:01:00,80.0,67.0,-100.00,NE,47,10.0,16.0,64,0.00,,,0.06,,2013-06-18 04:01:00,
2013-06-17 18:12:00,80.0,67.0,-100.00,NE,47,10.0,16.0,64,0.00,,,0.06,,2013-06-18 04:12:00,
2013-06-17 18:22:00,80.0,67.0,-100.00,NE,47,10.0,16.0,64,0.00,,,0.06,,2013-06-18 04:22:00,
2013-06-17 18:34:00,80.0,67.0,-100.00,NE,47,10.0,16.0,64,0.00,,,0.06,,2013-06-18 04:34:00,
2013-06-17 18:41:00,78.0,65.0,-100.00,ENE,57,9.0,16.0,64,0.00,,,0.06,,2013-06-18 04:41:00,
2013-06-17 19:02:00,78.0,65.0,-100.00,ENE,57,9.0,16.0,64,0.00,,,0.06,,2013-06-18 05:02:00,
2013-06-17 19:12:00,78.0,65.0,-100.00,ENE,57,9.0,16.0,64,0.00,,,0.06,,2013-06-18 05:12:00,
2013-06-17 19:22:00,78.0,65.0,-100.00,ENE,57,9.0,16.0,64,0.00,,,0.06,,2013-06-18 05:22:00,
2013-06-17 19:33:00,78.0,65.0,-100.00,ENE,57,9.0,16.0,64,0.00,,,0.06,,2013-06-18 05:33:00,
2013-06-17 19:41:00,77.0,65.0,-100.00,ENE,61,9.0,16.0,66,0.00,,,0.06,,2013-06-18 05:41:00,
2013-06-17 20:02:00,77.0,65.0,-100.00,ENE,61,9.0,16.0,66,0.00,,,0.06,,2013-06-18 06:02:00,
2013-06-17 20:11:00,77.0,65.0,-100.00,ENE,61,9.0,16.0,66,0.00,,,0.06,,2013-06-18 06:11:00,
2013-06-17 20:23:00,77.0,65.0,-100.00,ENE,61,9.0,16.0,66,0.00,,,0.06,,2013-06-18 06:23:00,
2013-06-17 20:32:00,77.0,65.0,-100.00,ENE,61,9.0,16.0,66,0.00,,,0.06,,2013-06-18 06:32:00,
2013-06-17 20:41:00,77.0,65.0,-100.00,ENE,73,10.0,16.0,66,0.00,,,0.06,,2013-06-18 06:41:00,
2013-06-17 21:12:00,77.0,65.0,-100.00,ENE,73,10.0,16.0,66,0.00,,,0.06,,2013-06-18 07:12:00,
2013-06-17 21:22:00,77.0,65.0,-100.00,ENE,73,10.0,16.0,66,0.00,,,0.06,,2013-06-18 07:22:00,
2013-06-17 21:33:00,77.0,65.0,-100.00,ENE,73,10.0,16.0,66,0.00,,,0.06,,2013-06-18 07:33:00,
2013-06-17 21:41:00,76.0,65.0,-100.00,ENE,65,8.0,15.0,68,0.00,,,0.06,,2013-06-18 07:41:00,
2013-06-17 22:11:00,76.0,65.0,-100.00,ENE,65,8.0,15.0,68,0.00,,,0.06,,2013-06-18 08:11:00,
2013-06-17 22:23:00,76.0,65.0,-100.00,ENE,65,8.0,15.0,68,0.00,,,0.06,,2013-06-18 08:23:00,
2013-06-17 22:32:00,76.0,65.0,-100.00,ENE,65,8.0,15.0,68,0.00,,,0.06,,2013-06-18 08:32:00,
2013-06-17 22:41:00,74.0,64.0,-100.00,NE,53,7.0,16.0,70,0.00,,,0.06,,2013-06-18 08:41:00,
2013-06-17 23:01:00,74.0,64.0,-100.00,NE,53,7.0,16.0,70,0.00,,,0.06,,2013-06-18 09:01:00,
2013-06-17 23:12:00,74.0,64.0,-100.00,NE,53,7.0,16.0,70,0.00,,,0.06,,2013-06-18 09:12:00,
2013-06-17 23:22:00,74.0,64.0,-100.00,NE,53,7.0,16.0,70,0.00,,,0.06,,2013-06-18 09:22:00,
2013-06-17 23:34:00,74.0,64.0,-100.00,NE,53,7.0,16.0,70,0.00,,,0.06,,2013-06-18 09:34:00,
2013-06-17 23:41:00,74.0,66.0,-100.00,NE,43,3.0,12.0,77,0.00,,,0.06,,2013-06-18 09:41:00,